This is the latest recevied weather packets stored in our database for station/object WB4ZUT. If no packets are shown the sender has not sent any weather packets the latest 10 day(s).
| Time | Temp. | Humidity | Pressure | Rain* | Wind** | Luminosity | Snow |
|---|---|---|---|---|---|---|---|
| 1777505397 | 17.78° C | 60% | 1013.9 hPa | 0 mm | - | 51 W/m² | - |
| 1777505094 | 18.33° C | 57% | 1013.9 hPa | 0 mm | - | 61 W/m² | - |
| 1777504791 | 18.33° C | 56% | 1013.9 hPa | 0 mm | - | 133 W/m² | - |
| 1777504488 | 18.33° C | 57% | 1013.9 hPa | 0 mm | - | 173 W/m² | - |
| 1777504183 | 18.33° C | 56% | 1013.9 hPa | 0 mm | - | 177 W/m² | - |
| 1777503879 | 18.89° C | 57% | 1013.7 hPa | 0 mm | - | 173 W/m² | - |
| 1777503575 | 18.89° C | 57% | 1013.9 hPa | 0 mm | - | 186 W/m² | - |
| 1777503273 | 18.89° C | 57% | 1013.8 hPa | 0 mm | - | 199 W/m² | - |
| 1777502969 | 18.89° C | 57% | 1014 hPa | 0 mm | - | 214 W/m² | - |
| 1777502667 | 19.44° C | 56% | 1013.9 hPa | 0 mm | - | 227 W/m² | - |
| 1777502363 | 18.89° C | 58% | 1013.9 hPa | 0 mm | - | 258 W/m² | - |
| 1777502060 | 18.89° C | 58% | 1013.8 hPa | 0 mm | - | 275 W/m² | - |
| 1777501757 | 18.33° C | 59% | 1013.7 hPa | 0 mm | - | 278 W/m² | - |
| 1777501455 | 19.44° C | 57% | 1014 hPa | 0 mm | - | 118 W/m² | - |
| 1777501151 | 19.44° C | 55% | 1013.9 hPa | 0 mm | - | 315 W/m² | - |
| 1777500850 | 19.44° C | 56% | 1013.8 hPa | 0 mm | - | 332 W/m² | - |
| 1777500547 | 19.44° C | 55% | 1013.9 hPa | 0 mm | - | 348 W/m² | - |
| 1777500243 | 19.44° C | 56% | 1013.9 hPa | 0 mm | - | 367 W/m² | - |
| 1777499939 | 19.44° C | 54% | 1013.9 hPa | 0 mm | - | 418 W/m² | - |
| 1777499636 | 20° C | 55% | 1013.7 hPa | 0 mm | - | 412 W/m² | - |
| 1777499333 | 19.44° C | 56% | 1013.5 hPa | 0 mm | - | 415 W/m² | - |
| 1777499031 | 20° C | 56% | 1013.8 hPa | 0 mm | - | 468 W/m² | - |
| 1777498727 | 20° C | 55% | 1013.8 hPa | 0 mm | - | 454 W/m² | - |
| 1777498424 | 19.44° C | 56% | 1013.8 hPa | 0 mm | - | 497 W/m² | - |
| 1777498120 | 19.44° C | 58% | 1013.8 hPa | 0 mm | - | 465 W/m² | - |
* Rain latest hour (hover to see other rain measurements)
** Current wind speed in m/s (hover to see current wind gust speed)